This is the latest recevied weather packets stored in our database for station/object SQ7IQO. If no packets are shown the sender has not sent any weather packets the latest 10 day(s).
| Time | Temp. | Humidity | Pressure | Rain* | Wind** | Luminosity | Snow |
|---|---|---|---|---|---|---|---|
| 1787911839 | 25° C | 41% | 1020.2 hPa | 0 mm | 0 m/s | - | - |
| 1787911779 | 25° C | 45% | 1020.2 hPa | 0 mm | 0.89 m/s, ° | - | - |
| 1787911720 | 25° C | 43% | 1020.3 hPa | 0 mm | 0 m/s | - | - |
| 1787911660 | 25° C | 43% | 1020.2 hPa | 0 mm | 0.45 m/s, ° | - | - |
| 1787911599 | 25° C | 43% | 1020.3 hPa | 0 mm | 0.45 m/s, ° | - | - |
| 1787911539 | 25° C | 44% | 1020.3 hPa | 0 mm | 0.45 m/s, ° | - | - |
| 1787911479 | 24.44° C | 46% | 1020.3 hPa | 0 mm | 0 m/s | - | - |
| 1787911419 | 23.89° C | 44% | 1020.3 hPa | 0 mm | 0.45 m/s, ° | - | - |
| 1787911360 | 23.89° C | 44% | 1020.3 hPa | 0 mm | 0.45 m/s, ° | - | - |
| 1787911299 | 23.89° C | 44% | 1020.3 hPa | 0 mm | 0.89 m/s, ° | - | - |
| 1787911239 | 23.89° C | 45% | 1020.3 hPa | 0 mm | 0.89 m/s, ° | - | - |
| 1787911180 | 23.89° C | 44% | 1020.2 hPa | 0 mm | 0.89 m/s, ° | - | - |
| 1787911120 | 23.89° C | 45% | 1020.3 hPa | 0 mm | 0.45 m/s, ° | - | - |
| 1787911059 | 23.89° C | 45% | 1020.3 hPa | 0 mm | 0.89 m/s, ° | - | - |
| 1787910999 | 23.89° C | 45% | 1020.3 hPa | 0 mm | 0.89 m/s, ° | - | - |
| 1787910939 | 23.89° C | 45% | 1020.3 hPa | 0 mm | 0.89 m/s, ° | - | - |
| 1787910879 | 23.89° C | 44% | 1020.3 hPa | 0 mm | 0.89 m/s, ° | - | - |
| 1787910819 | 24.44° C | 42% | 1020.3 hPa | 0 mm | 1.34 m/s, ° | - | - |
| 1787910760 | 24.44° C | 44% | 1020.3 hPa | 0 mm | 0.89 m/s, ° | - | - |
| 1787910699 | 24.44° C | 45% | 1020.3 hPa | 0 mm | 0.89 m/s, ° | - | - |
| 1787910639 | 24.44° C | 46% | 1020.4 hPa | 0 mm | 0.45 m/s, ° | - | - |
| 1787910580 | 24.44° C | 45% | 1020.3 hPa | 0 mm | 0 m/s | - | - |
| 1787910520 | 24.44° C | 44% | 1020.3 hPa | 0 mm | 0.45 m/s, ° | - | - |
| 1787910459 | 24.44° C | 45% | 1020.3 hPa | 0 mm | 0.89 m/s, ° | - | - |
| 1787910399 | 24.44° C | 45% | 1020.3 hPa | 0 mm | 0 m/s | - | - |
* Rain latest hour (hover to see other rain measurements)
** Current wind speed in m/s (hover to see current wind gust speed)